Stations météo

réclame
Mon MeteoGroup
Wittmund, Allemagne (10126): Température de l'air & dewpoint: 05.07.2020 07:00:00 - 11.07.2020 07:00:00 (CEST)Wittmund, Allemagne (10126): Vitesse du vent & gusts: 05.07.2020 07:00:00 - 11.07.2020 07:00:00 (CEST)Wittmund, Allemagne (10126): Direction du vent: 05.07.2020 07:00:00 - 11.07.2020 07:00:00 (CEST)Wittmund, Allemagne (10126): reduced air pressure: 05.07.2020 07:00:00 - 11.07.2020 07:00:00 (CEST)Wittmund, Allemagne (10126): visibility: 05.07.2020 07:00:00 - 11.07.2020 07:00:00 (CEST)
Date & Time tt [°C] td [°C] ff [km/h] ff [knt] fx [km/h] fx [knt] dd ppp [hPa] vv [km]
11.07.2020 07:00:00 10,3 9,2 7 4 - - SW 1021,0 4,5
11.07.2020 06:00:00 9,1 8,1 7 4 - - SW 1020,5 3,8
11.07.2020 05:00:00 8,2 6,9 7 4 - - SW 1020,0 4,1
11.07.2020 04:00:00 8,9 7,4 7 4 - - WSW 1019,6 5
11.07.2020 03:00:00 9,2 7,7 7 4 - - SW 1019,3 5
11.07.2020 02:00:00 10,9 8,2 7 4 - - W 1019,0 4,5
11.07.2020 01:00:00 11,3 8,8 11 6 - - W 1018,4 4,7
11.07.2020 00:00:00 12,1 8,7 11 6 - - W 1018,0 4,7
10.07.2020 23:00:00 12,9 7,9 14 8 - - W 1017,8 4,4
10.07.2020 22:00:00 12,8 7,4 11 6 - - W 1017,4 4,8
10.07.2020 21:00:00 14,0 6,8 14 8 - - WNW 1017,0 4,3
10.07.2020 20:00:00 14,1 7,0 18 10 - - NW 1016,5 40
10.07.2020 19:00:00 14,8 7,7 25 14 - - NW 1015,9 40
10.07.2020 18:00:00 15,0 8,4 22 12 - - NW 1015,2 40
10.07.2020 17:00:00 16,0 9,9 14 8 - - NW 1014,6 35
10.07.2020 16:00:00 15,0 9,3 18 10 - - NW 1013,8 30
10.07.2020 15:00:00 14,0 9,9 22 12 - - NNW 1012,9 30
10.07.2020 14:00:00 14,2 9,5 18 10 - - NNW 1012,0 20
10.07.2020 13:00:00 13,2 10,3 11 6 - - N 1010,7 10
10.07.2020 12:00:00 13,2 10,9 16 9 - - NNE 1010,0 10
10.07.2020 11:00:00 12,4 10,5 18 10 - - NNE 1009,1 15
10.07.2020 10:00:00 12,3 10,6 14 8 - - NNE 1008,3 12
10.07.2020 09:00:00 12,0 10,9 18 10 - - NNE 1007,5 7
10.07.2020 08:00:00 11,4 10,3 18 10 - - NE 1007,5 6
10.07.2020 07:00:00 11,2 10,5 18 10 - - NE 1007,4 3,5
10.07.2020 06:00:00 11,4 10,6 18 10 - - NE 1007,6 2,8
10.07.2020 05:00:00 11,5 10,7 18 10 - - NNE 1008,0 1,3
10.07.2020 04:00:00 11,7 10,9 14 8 - - NE 1008,7 1,2
10.07.2020 03:00:00 12,2 11,3 14 8 - - ENE 1009,3 1,5
10.07.2020 02:00:00 12,3 11,4 14 8 - - E 1009,9 3,2
10.07.2020 01:00:00 12,4 11,3 11 6 - - ENE 1010,8 2,4
10.07.2020 00:00:00 12,6 11,3 11 6 - - E 1011,0 3,8
09.07.2020 23:00:00 12,6 11,3 11 6 - - E 1011,3 3,4
09.07.2020 22:00:00 12,8 11,1 7 4 - - ENE 1011,5 3,6
09.07.2020 21:00:00 13,5 11,4 11 6 - - ENE 1011,4 4,4
09.07.2020 20:00:00 13,5 11,4 7 4 - - NE 1011,7 15
09.07.2020 19:00:00 13,4 11,0 11 6 - - NE 1011,8 15
09.07.2020 18:00:00 13,4 11,4 14 8 - - ENE 1011,8 6
09.07.2020 17:00:00 13,4 11,6 14 8 - - ENE 1011,8 9
09.07.2020 16:00:00 13,4 11,3 14 8 - - ENE 1011,8 12
09.07.2020 15:00:00 12,7 11,1 16 9 - - NE 1011,9 9
09.07.2020 14:00:00 12,7 11,0 22 12 - - ENE 1011,7 10
09.07.2020 13:00:00 12,1 11,0 22 12 - - ENE 1011,8 4,0
09.07.2020 12:00:00 11,8 10,9 14 8 - - ENE 1012,0 3,7
09.07.2020 11:00:00 11,6 10,7 18 10 - - ENE 1012,0 3,7
09.07.2020 10:00:00 11,5 10,4 14 8 - - E 1012,2 4,0
09.07.2020 09:00:00 11,5 10,1 18 10 - - E 1012,6 6
09.07.2020 08:00:00 11,7 10,2 11 6 - - E 1013,6 7
09.07.2020 07:00:00 11,6 9,7 7 4 - - E 1013,9 15
09.07.2020 06:00:00 11,5 9,1 7 4 - - E 1014,1 20
09.07.2020 05:00:00 11,7 8,6 7 4 - - E 1014,4 4,0
09.07.2020 04:00:00 11,8 7,6 7 4 - - E 1014,7 4,5
09.07.2020 03:00:00 11,8 7,8 7 4 - - ENE 1015,4 4,3
09.07.2020 02:00:00 11,4 8,1 7 4 - - ENE 1015,6 4,2
09.07.2020 01:00:00 11,4 8,2 4 2 - - E 1015,9 4,0
09.07.2020 00:00:00 11,0 8,9 4 2 - - NNE 1016,5 3,9
08.07.2020 23:00:00 11,7 8,9 7 4 - - ENE 1016,4 3,9
08.07.2020 22:00:00 12,4 9,0 7 4 - - NE 1016,2 4,3
08.07.2020 21:00:00 13,7 8,7 7 4 - - N 1016,3 4,5
08.07.2020 20:00:00 14,7 8,5 11 6 - - NNE 1016,1 35
08.07.2020 19:00:00 15,6 8,8 11 6 - - NNE 1016,0 35
08.07.2020 18:00:00 15,6 10,1 7 4 - - NE 1016,1 35
08.07.2020 17:00:00 13,9 10,7 7 4 - - SE 1016,3 35
08.07.2020 16:00:00 13,5 10,6 4 2 - - E 1016,1 20
08.07.2020 15:00:00 13,8 10,2 7 4 - - NW 1015,9 30
08.07.2020 14:00:00 15,0 10,1 11 6 - - SSW 1015,5 30
08.07.2020 13:00:00 13,9 10,0 7 4 - - WNW 1015,4 30
08.07.2020 12:00:00 12,9 10,6 4 2 - - N 1015,2 20
08.07.2020 11:00:00 13,5 10,1 11 6 - - NW 1015,0 20
08.07.2020 10:00:00 14,4 9,4 7 4 - - W 1014,5 20
08.07.2020 09:00:00 14,4 10,2 11 6 - - W 1014,4 20
08.07.2020 08:00:00 13,1 9,9 7 4 - - WSW 1014,2 20
08.07.2020 07:00:00 12,2 10,2 7 4 - - WSW 1014,2 20
08.07.2020 06:00:00 10,2 8,8 4 2 - - SW 1014,4 15
08.07.2020 05:00:00 10,4 8,5 4 2 - - SW 1014,5 4,4
08.07.2020 04:00:00 11,2 8,5 7 4 - - WSW 1014,9 4,8
08.07.2020 03:00:00 11,2 7,9 11 6 - - WSW 1015,2 5
08.07.2020 02:00:00 11,4 7,5 7 4 - - WSW 1015,4 5
08.07.2020 01:00:00 11,6 7,5 14 8 - - WSW 1015,6 5
08.07.2020 00:00:00 11,8 7,9 11 6 - - WSW 1016,0 4,8
07.07.2020 23:00:00 12,6 9,1 14 8 - - WSW 1016,2 4,7
07.07.2020 22:00:00 13,5 8,1 14 8 - - W 1016,1 4,6
07.07.2020 21:00:00 13,8 8,3 18 10 - - W 1016,3 4,5
07.07.2020 20:00:00 14,4 8,4 22 12 - - W 1016,4 20
07.07.2020 19:00:00 14,7 8,2 22 12 - - W 1016,6 20
07.07.2020 18:00:00 14,9 7,6 29 16 47 25 W 1016,9 20
07.07.2020 17:00:00 14,5 8,7 25 14 - - W 1017,1 20
07.07.2020 16:00:00 15,0 8,1 36 19 47 25 W 1017,0 20
07.07.2020 15:00:00 14,4 9,9 25 14 - - W 1016,9 15
07.07.2020 14:00:00 13,2 11,8 13 7 - - WSW 1017,0 10
07.07.2020 13:00:00 16,0 9,4 25 14 - - SW 1016,5 12
07.07.2020 12:00:00 16,8 9,4 25 14 - - SSW 1016,9 35
07.07.2020 11:00:00 14,5 10,0 22 12 - - SSW 1017,8 35
07.07.2020 10:00:00 14,1 9,2 14 8 - - SW 1018,2 30
07.07.2020 09:00:00 14,4 9,2 11 6 - - WSW 1018,4 35
07.07.2020 08:00:00 12,9 8,7 11 6 - - SW 1018,6 35
07.07.2020 07:00:00 10,9 7,6 7 4 - - WSW 1018,7 35
07.07.2020 06:00:00 9,6 7,4 7 4 - - SW 1018,5 25
07.07.2020 05:00:00 10,7 7,0 7 4 - - WSW 1018,5 4,8
07.07.2020 04:00:00 11,0 5,3 7 4 - - WSW 1018,6 5
07.07.2020 03:00:00 11,7 5,5 14 8 - - W 1018,7 5
07.07.2020 02:00:00 12,2 7,4 11 6 - - W 1018,8 4,5
07.07.2020 01:00:00 11,9 7,2 11 6 - - W 1018,5 4,1
07.07.2020 00:00:00 11,9 7,9 7 4 - - WSW 1018,1 3,8
06.07.2020 23:00:00 12,6 7,1 14 8 - - WNW 1017,7 4,2
06.07.2020 22:00:00 13,4 7,6 18 10 - - WNW 1017,2 4,2
06.07.2020 21:00:00 14,4 7,9 22 12 - - WNW 1016,5 4,0
06.07.2020 20:00:00 15,0 9,0 25 14 - - WNW 1015,8 20
06.07.2020 19:00:00 15,2 8,6 22 12 47 25 NW 1015,1 20
06.07.2020 18:00:00 15,1 10,4 29 16 61 33 WNW 1014,2 20
06.07.2020 17:00:00 16,1 9,4 32 18 - - W 1013,2 25
06.07.2020 16:00:00 15,7 8,8 36 19 54 29 WNW 1012,7 10
06.07.2020 15:00:00 15,3 10,4 29 16 58 31 W 1012,0 15
06.07.2020 14:00:00 15,9 8,7 32 18 - - W 1011,4 20
06.07.2020 13:00:00 14,6 10,2 29 16 50 27 W 1010,7 9
06.07.2020 12:00:00 13,2 9,0 25 14 50 27 WNW 1009,9 15
06.07.2020 11:00:00 15,4 8,3 41 22 - - W 1008,9 10
06.07.2020 10:00:00 13,7 9,7 34 18 61 33 W 1008,3 6
06.07.2020 09:00:00 14,9 10,2 25 14 - - W 1007,4 15
06.07.2020 08:00:00 13,2 10,3 18 10 - - WSW 1006,8 15
06.07.2020 07:00:00 13,0 9,3 22 12 - - WSW 1006,4 20
06.07.2020 06:00:00 13,0 8,3 25 14 47 25 WSW 1006,0 14
06.07.2020 05:00:00 12,6 9,1 22 12 - - WSW 1005,8 4,6
06.07.2020 04:00:00 11,7 8,9 14 8 - - SW 1006,0 4,3
06.07.2020 03:00:00 12,1 8,8 22 12 68 37 W 1006,7 3,7
06.07.2020 02:00:00 14,1 10,3 18 10 - - SW 1006,3 3,4
06.07.2020 01:00:00 14,8 10,6 14 8 - - SSW 1006,4 4,3
06.07.2020 00:00:00 15,1 9,8 7 4 - - SW 1006,9 4,4
05.07.2020 23:00:00 15,4 10,4 11 6 - - SW 1007,3 4,3
05.07.2020 22:00:00 16,0 9,8 11 6 - - SW 1007,3 4,3
05.07.2020 21:00:00 16,7 8,6 22 12 - - W 1007,4 4,5
05.07.2020 20:00:00 17,4 9,0 25 14 - - W 1007,2 4,5
05.07.2020 19:00:00 17,7 9,8 22 12 - - W 1007,1 4,3
05.07.2020 18:00:00 16,8 10,0 29 16 - - WNW 1007,5 4,5
05.07.2020 17:00:00 18,4 11,8 32 18 - - WNW 1006,9 4,4
05.07.2020 16:00:00 18,4 11,8 40 21 61 33 W 1006,8 4,5
05.07.2020 15:00:00 20,3 13,3 25 14 54 29 WSW 1006,0 4,6
05.07.2020 14:00:00 18,7 14,8 32 18 - - W 1005,7 4,2
05.07.2020 13:00:00 19,0 15,5 25 14 47 25 WSW 1005,2 4,5
05.07.2020 12:00:00 17,5 16,0 25 14 50 27 WSW 1005,4 1,2
05.07.2020 11:00:00 16,8 15,4 29 16 - - SW 1005,1 1,9
05.07.2020 10:00:00 16,8 15,3 25 14 54 29 SW 1005,0 1,5
05.07.2020 09:00:00 16,6 15,1 32 18 54 29 SW 1004,7 1,9
05.07.2020 08:00:00 16,7 15,2 29 16 - - SW 1004,4 2,8
05.07.2020 07:00:00 16,8 15,5 29 16 50 27 SW 1004,7 3,8

tt = Température de l'air
td = dewpoint
ff = Vitesse du vent
fx = gusts
dd = Direction du vent
ppp = reduced air pressure
vv = visibility

stations d'obs. à proximité